Regional Weather Roundup
Issued by NWS

Home | Current Version | Previous Version | Graphics & Text | Print | Product List | Glossary On
Versions: 1 2 3 4 5 6 7 8 9 10 11 12 13 14 15 16 17 18 19 20 21 22 23 24 25 26 27 28 29 30 31 32 33 34 35 36 37 38 39 40 41 42 43 44 45 46 47 48 49 50
000
ASUS43 KLSX 221907
RWRMO

WEATHER SUMMARY FOR MISSOURI
NATIONAL WEATHER SERVICE SPRINGFIELD MO
200 PM CDT FRI SEP 22 2017

NOTE: "FAIR" INDICATES FEW OR NO CLOUDS BELOW 12,000 FEET WITH NO
       SIGNIFICANT WEATHER AND/OR OBSTRUCTIONS TO VISIBILITY.
       CURRENT SKY AND/OR WEATHER CONDITIONS ARE NOT AVAILABLE FOR
       CHILLICOTHE AND FARMINGTON.

MOZ001>031-035>038-043-044-053-054-222000-
...NORTHERN AND WESTERN MISSOURI...

CITY           SKY/WX    TMP DP  RH WIND       PRES   REMARKS
KANSAS CTY INT MOSUNNY   88  72  58 S18       29.95F HX  94
KANSAS C DTWN  SUNNY     90  71  53 S16       29.95F HX  96
LEE`S SUMMIT   SUNNY     88  70  55 S13       29.97F HX  93
ST JOSEPH      SUNNY     91  71  51 S18G26    29.91F HX  97
CHILLICOTHE      N/A     90  71  53 S13G20    29.97F HX  96
KIRKSVILLE     MOSUNNY   89  69  51 S12G21    30.01F HX  93

$$
MOZ066>068-077>081-088>096-101>105-222000-
...SOUTHWEST MISSOURI...

CITY           SKY/WX    TMP DP  RH WIND       PRES   REMARKS
SPRINGFIELD    MOSUNNY   87  66  49 S8        30.03F
JOPLIN         PTSUNNY   87  70  56 S14       30.01F HX  92
BRANSON        MOSUNNY   86  64  48 SE7       30.05F

$$
MOZ032>034-039>042-045>050-055>058-069>072-222000-
...CENTRAL MISSOURI...

CITY           SKY/WX    TMP DP  RH WIND       PRES   REMARKS
COLUMBIA       SUNNY     90  66  45 S10       30.02F HX  92
JEFFERSON CITY SUNNY     89  64  43 S8        30.00F HX  90
ROLLA          MOSUNNY   91  65  41 S10G23    30.05F HX  93
SEDALIA        SUNNY     90  71  53 S8G20     30.02F HX  96
WHITEMAN AFB   MOSUNNY   89  71  55 S14       29.98F HX  94
WARRENSBURG    SUNNY     86  68  54 S13       29.99F
OSAGE BEACH    PTSUNNY   90  68  48 S6        30.03  HX  94

$$
MOZ051-052-059>065-222000-
...EAST CENTRAL MISSOURI...

CITY           SKY/WX    TMP DP  RH WIND       PRES   REMARKS
ST LOUIS INTL  MOSUNNY   93  63  36 S8        30.03F HX  94
SPIRIT OF STL  MOSUNNY   93  65  39 S7        30.00F HX  95
ST CHARLES     SUNNY     95  63  34 SE13G18   30.01F HX  96

$$
MOZ072>076-082>087-097>100-106>115-222000-
...SOUTH CENTRAL AND SOUTHEAST MISSOURI...

CITY           SKY/WX    TMP DP  RH WIND       PRES   REMARKS
CAPE GIRARDEAU SUNNY     92  63  38 VRB3      30.02F HX  93
FARMINGTON     SUNNY     90  66  45 VRB3      30.05F HX  92
POPLAR BLUFF   SUNNY     92  67  43 VRB6      30.01F HX  95
WEST PLAINS    MOSUNNY   90  63  40 S9        30.06F HX  91

$$



USA.gov is the U.S. government's official web portal to all federal, state and local government web resources and services.